Location: Godiavel Galaoual
(15.2485°N, 12.6604°W)
Time: 17:56:23
(UTC+00:00)

Meteor 1-11 Rocket - Pass Details

Date: 27 February 2020
Orbit: 831 x 915 km, 81.2° (Epoch: 02 April)

Event Time Altitude Azimuth Distance (km) Brightness Sun altitude
Rises 20:40:39 0° 189° (S) 3,453 7.0 -25.5°
Reaches altitude 10° 20:43:07 10° 191° (S) 2,504 6.3 -26.1°
Maximum altitude 20:48:46 74° 276° (W) 885 3.8 -27.5°
Drops below altitude 10° 20:54:20 10° 1° (N) 2,456 6.1 -28.8°
Sets 20:56:44 0° 3° (N) 3,383 6.8 -29.4°
